TimeMDT,TemperatureF,Dew PointF,Humidity,Sea Level PressureIn,VisibilityMPH,Wind Direction,Wind SpeedMPH,Gust SpeedMPH,PrecipitationIn,Events,Conditions,WindDirDegrees,DateUTC
12:56 AM,28.0,26.1,92,29.89,-9999.0,WNW,3.5,-,N/A,,Unknown,300,2013-10-08 06:56:00
1:56 AM,28.0,25.0,88,29.87,-9999.0,Calm,Calm,-,N/A,,Unknown,0,2013-10-08 07:56:00
2:56 AM,28.0,25.0,88,29.86,-9999.0,WNW,3.5,-,N/A,,Unknown,300,2013-10-08 08:56:00
3:56 AM,28.0,25.0,88,29.84,-9999.0,Calm,Calm,-,N/A,,Unknown,0,2013-10-08 09:56:00
4:56 AM,28.0,25.0,88,29.84,-9999.0,Calm,Calm,-,N/A,,Unknown,0,2013-10-08 10:56:00
5:56 AM,28.0,26.1,92,29.85,-9999.0,Calm,Calm,-,N/A,,Unknown,0,2013-10-08 11:56:00
6:56 AM,28.0,26.1,92,29.88,-9999.0,WNW,3.5,-,N/A,,Unknown,300,2013-10-08 12:56:00
7:56 AM,28.9,26.1,89,29.92,-9999.0,WNW,3.5,-,N/A,,Unknown,300,2013-10-08 13:56:00
8:56 AM,33.1,25.0,72,29.92,-9999.0,WNW,4.6,-,N/A,,Unknown,290,2013-10-08 14:56:00
9:56 AM,44.1,19.9,38,29.86,-9999.0,Variable,6.9,-,N/A,,Unknown,0,2013-10-08 15:56:00
10:56 AM,46.0,21.9,39,29.82,-9999.0,WSW,8.1,-,N/A,,Unknown,250,2013-10-08 16:56:00
11:56 AM,44.1,24.1,45,29.85,-9999.0,Variable,5.8,21.9,N/A,,Unknown,0,2013-10-08 17:56:00
12:56 PM,42.1,25.0,51,29.87,-9999.0,West,10.4,24.2,N/A,,Unknown,260,2013-10-08 18:56:00
1:56 PM,42.1,24.1,49,29.87,-9999.0,Variable,6.9,19.6,N/A,,Unknown,0,2013-10-08 19:56:00
2:56 PM,42.1,24.1,49,29.88,-9999.0,Variable,6.9,16.1,N/A,,Unknown,0,2013-10-08 20:56:00
3:56 PM,39.9,19.0,43,29.91,-9999.0,Variable,6.9,23.0,N/A,,Unknown,0,2013-10-08 21:56:00
4:56 PM,41.0,17.1,38,29.89,-9999.0,Calm,Calm,-,N/A,,Unknown,0,2013-10-08 22:56:00
5:56 PM,39.0,14.0,36,29.92,-9999.0,West,5.8,-,N/A,,Unknown,280,2013-10-08 23:56:00
6:56 PM,34.0,19.0,54,29.97,-9999.0,Calm,Calm,-,N/A,,Unknown,0,2013-10-09 00:56:00
7:56 PM,28.9,19.0,67,30.00,-9999.0,NW,4.6,-,N/A,,Unknown,310,2013-10-09 01:56:00
8:56 PM,28.0,19.9,72,29.98,-9999.0,NW,4.6,-,N/A,,Unknown,320,2013-10-09 02:56:00
9:56 PM,26.1,21.0,81,29.95,-9999.0,Calm,Calm,-,N/A,,Unknown,0,2013-10-09 03:56:00
10:56 PM,26.1,19.9,78,29.94,-9999.0,NW,3.5,-,N/A,,Unknown,310,2013-10-09 04:56:00
11:56 PM,24.1,19.9,84,29.95,-9999.0,WNW,3.5,-,N/A,,Unknown,290,2013-10-09 05:56:00